GLOBALSTAR M001 1 25162U 98008A 10066.06566682 -.00000084 00000-0 10000-3 0 5064 2 25162 052.0040 013.9077 0000602 042.9063 317.1847 12.37993615552502 GLOBALSTAR M004 1 25163U 98008B 10066.45762943 -.00000086 00000-0 10000-3 0 5574 2 25163 051.9985 155.7884 0004183 156.9658 203.1393 12.63158997556457 GLOBALSTAR M002 1 25164U 98008C 10066.03414514 -.00000071 00000-0 10000-3 0 4479 2 25164 051.9989 192.8408 0001686 103.1133 256.9874 11.61426769535621 GLOBALSTAR M003 1 25165U 98008D 10067.69096479 -.00000086 +00000-0 +10000-3 0 05735 2 25165 051.9939 158.6721 0001091 159.8978 200.1931 12.62275133556458 GLOBALSTAR M014 1 25306U 98023A 10065.98910217 -.00000083 00000-0 10000-3 0 4381 2 25306 051.9909 261.8120 0002289 082.1238 277.9879 12.29156049539900 GLOBALSTAR M006 1 25307U 98023B 10067.70377545 -.00000086 +00000-0 +10000-3 0 02713 2 25307 051.9959 204.8559 0002466 132.3907 227.7171 12.62262594547623 GLOBALSTAR M015 1 25308U 98023C 10065.86064677 -.00000086 00000-0 10000-3 0 2785 2 25308 051.9930 209.8643 0001944 134.3034 225.7980 12.62266928547390 GLOBALSTAR M008 1 25309U 98023D 10067.77548195 -.00000085 +00000-0 +10000-3 0 02576 2 25309 051.9925 207.9737 0002109 162.5369 197.5558 12.57124390547573 GLOBALSTAR M023 1 25621U 99004A 10067.68411548 -.00000086 +00000-0 +10000-3 0 02520 2 25621 052.0109 118.3751 0009332 044.1143 316.0458 12.62226578511156 GLOBALSTAR M040 1 25622U 99004B 10067.62308984 -.00000086 +00000-0 +10000-3 0 01589 2 25622 051.9917 114.4535 0000426 198.5635 161.5213 12.61704470511157 GLOBALSTAR M036 1 25623U 99004C 10066.13281664 -.00000086 00000-0 10000-3 0 1940 2 25623 051.9990 120.2800 0001492 182.3490 177.7377 12.62268325510999 GLOBALSTAR M038 1 25624U 99004D 10066.11797342 -.00000086 00000-0 10000-3 0 1955 2 25624 052.0005 076.2899 0001175 168.1602 191.9290 12.62273869511736 GLOBALSTAR M022 1 25649U 99012A 10066.13007459 -.00000084 00000-0 10000-3 0 1561 2 25649 052.0106 359.9506 0001200 120.7142 239.3815 12.38629526504700 GLOBALSTAR M041 1 25650U 99012B 10066.52385801 -.00000086 00000-0 10000-3 0 2031 2 25650 052.0068 255.7047 0002640 107.6856 252.4302 12.62255876506605 GLOBALSTAR M046 1 25651U 99012C 10067.69389694 -.00000086 +00000-0 +10000-3 0 02080 2 25651 052.0024 250.3395 0000775 105.3171 254.7779 12.62269427506731 GLOBALSTAR M037 1 25652U 99012D 10067.79327095 -.00000086 +00000-0 +10000-3 0 01808 2 25652 052.0019 251.1640 0002410 108.6081 251.5043 12.62269699506710 GLOBALSTAR M045 1 25676U 99019A 10066.08861052 -.00000086 00000-0 10000-3 0 3057 2 25676 051.9940 254.2466 0002578 108.3964 251.7182 12.62256874504095 GLOBALSTAR M019 1 25677U 99019B 10067.76367570 -.00000086 +00000-0 +10000-3 0 02071 2 25677 051.9958 293.9073 0002297 085.7686 274.3439 12.62269143504253 GLOBALSTAR M044 1 25678U 99019C 10066.09364220 -.00000084 00000-0 10000-3 0 1994 2 25678 052.0011 277.1253 0000379 352.9499 007.1354 12.39447166503063 GLOBALSTAR M042 1 25679U 99019D 10067.79604517 -.00000086 +00000-0 +10000-3 0 02969 2 25679 052.0053 340.7012 0000514 127.9985 232.0921 12.62271044502829 GLOBALSTAR M025 1 25770U 99031A 10066.08306307 -.00000086 00000-0 10000-3 0 1466 2 25770 051.9984 299.6575 0000732 080.5562 279.5388 12.62255161495360 GLOBALSTAR M049 1 25771U 99031B 10065.88062742 -.00000084 00000-0 10000-3 0 3499 2 25771 051.9971 306.3496 0003162 041.4839 318.6253 12.40169118495221 GLOBALSTAR M047 1 25772U 99031C 10067.78530026 -.00000086 +00000-0 +10000-3 0 02251 2 25772 051.9970 294.0548 0000524 092.5594 267.5326 12.62256488495589 GLOBALSTAR M052 1 25773U 99031D 10067.92420280 -.00000086 +00000-0 +10000-3 0 09491 2 25773 051.9930 292.4000 0002282 088.2073 271.9056 12.62256114495606 GLOBALSTAR M035 1 25851U 99037A 10067.87976402 -.00000061 +00000-0 +10000-3 0 08638 2 25851 051.9982 256.6373 0012452 304.6129 055.3482 11.04481214479786 GLOBALSTAR M032 1 25852U 99037B 10066.31342822 -.00000086 00000-0 10000-3 0 1236 2 25852 052.0047 344.3473 0001519 065.0607 295.0411 12.62267108491630 GLOBALSTAR M051 1 25853U 99037C 10066.09575130 -.00000086 00000-0 10000-3 0 1366 2 25853 052.0028 344.9067 0001516 103.9285 256.1722 12.62269457491605 GLOBALSTAR M030 1 25854U 99037D 10066.11546868 -.00000086 00000-0 10000-3 0 1344 2 25854 052.0032 345.1467 0000688 065.0762 295.0157 12.62262556491602 GLOBALSTAR M048 1 25872U 99041A 10066.10795421 -.00000086 00000-0 10000-3 0 1765 2 25872 052.0058 031.3208 0000850 156.7364 203.3526 12.62272380489339 GLOBALSTAR M026 1 25873U 99041B 10066.04879181 -.00000086 00000-0 10000-3 0 1530 2 25873 052.0070 031.6490 0001089 056.9295 303.1661 12.62268322489711 GLOBALSTAR M043 1 25874U 99041C 10066.08619224 -.00000086 00000-0 10000-3 0 1625 2 25874 052.0053 031.4627 0000782 070.1184 289.9753 12.62258748489711 GLOBALSTAR M028 1 25875U 99041D 10066.38520438 -.00000086 00000-0 10000-3 0 1379 2 25875 052.0047 030.2565 0000872 115.2793 244.8165 12.62269777489755 GLOBALSTAR M024 1 25883U 99043A 10067.42490607 -.00000086 +00000-0 +10000-3 0 01527 2 25883 052.0059 073.2115 0001225 150.5007 209.5928 12.62270116487008 GLOBALSTAR M027 1 25884U 99043B 10067.48614998 -.00000086 +00000-0 +10000-3 0 01334 2 25884 052.0068 072.9401 0000714 105.9603 254.1339 12.62268856487012 GLOBALSTAR M054 1 25885U 99043C 10067.90649510 -.00000081 +00000-0 +10000-3 0 00985 2 25885 052.0124 322.5924 0000673 069.9876 290.1043 12.20515035482548 GLOBALSTAR M053 1 25886U 99043D 10067.52612959 -.00000086 +00000-0 +10000-3 0 01516 2 25886 052.0083 072.8308 0000469 287.4689 072.6125 12.62268848487021 GLOBALSTAR M058 1 25907U 99049A 10067.91928807 -.00000086 +00000-0 +10000-3 0 01498 2 25907 051.9956 069.0693 0000968 124.7565 235.3391 12.62270334483322 GLOBALSTAR M050 1 25908U 99049B 10067.89574056 -.00000079 +00000-0 +10000-3 0 01075 2 25908 052.0012 309.6197 0009079 074.2671 285.9209 12.07310218478989 GLOBALSTAR M033 1 25909U 99049C 10067.50598682 -.00000086 +00000-0 +10000-3 0 01376 2 25909 051.9969 070.4999 0000800 077.8393 282.2564 12.62272293483256 GLOBALSTAR M055 1 25910U 99049D 10067.66255827 -.00000084 +00000-0 +10000-3 0 01509 2 25910 052.0025 133.7162 0001692 090.0629 270.0411 12.38119660482196 GLOBALSTAR M057 1 25943U 99058A 10067.82048169 -.00000086 +00000-0 +10000-3 0 04664 2 25943 051.9990 204.7530 0002436 116.7127 243.3997 12.62257386479255 GLOBALSTAR M059 1 25944U 99058B 10067.72147086 -.00000086 +00000-0 +10000-3 0 01197 2 25944 052.0021 205.6502 0001432 094.0710 266.0317 12.62266588479266 GLOBALSTAR M056 1 25945U 99058C 10067.68913431 -.00000086 +00000-0 +10000-3 0 04618 2 25945 051.9967 159.5293 0001091 159.3518 200.7397 12.62273752479994 GLOBALSTAR M031 1 25946U 99058D 10067.66904437 -.00000086 +00000-0 +10000-3 0 01407 2 25946 051.9963 159.9407 0003780 105.1600 254.9679 12.62269974480010 GLOBALSTAR M039 1 25961U 99062A 10066.09321399 -.00000086 00000-0 10000-3 0 4206 2 25961 051.9965 343.7827 0000660 135.9061 224.1700 12.62265485475431 GLOBALSTAR M034 1 25962U 99062B 10067.86742763 -.00000086 +00000-0 +10000-3 0 00717 2 25962 052.0015 024.6285 0001374 151.9020 208.1891 12.62290376474876 GLOBALSTAR M029 1 25963U 99062C 10066.41000708 -.00000086 00000-0 10000-3 0 4392 2 25963 051.9925 117.9227 0001914 135.0763 225.0255 12.62268947485181 GLOBALSTAR M061 1 25964U 99062D 10066.45748200 -.00000074 00000-0 10000-3 0 1050 2 25964 051.9762 226.7289 0004626 267.3472 092.6829 11.76685841464482 GLOBALSTAR M063 1 26081U 00008A 10065.80841859 -.00000086 00000-0 10000-3 0 1957 2 26081 051.9973 165.6841 0001180 158.6778 201.4134 12.62273898473148 GLOBALSTAR M062 1 26082U 00008B 10066.06371918 -.00000085 00000-0 10000-3 0 960 2 26082 052.0080 309.7757 0003288 118.5679 241.5490 12.49987188464737 GLOBALSTAR M060 1 26083U 00008C 10065.89476009 -.00000086 00000-0 10000-3 0 1960 2 26083 052.0028 212.3272 0001582 117.3431 242.7597 12.62270147472363 GLOBALSTAR M064 1 26084U 00008D 10065.82829635 -.00000086 00000-0 10000-3 0 4087 2 26084 052.0049 167.0635 0002093 130.1957 229.9091 12.62264847491109 GLOBALSTAR M065 1 31571U 07020A 10067.88462465 -.00000084 +00000-0 +10856-3 0 08640 2 31571 051.9931 294.3033 0002380 093.9520 266.1608 12.62266382129146 GLOBALSTAR M069 1 31573U 07020C 10067.91185450 -.00000086 +00000-0 +10000-3 0 04360 2 31573 051.9931 249.3590 0002996 116.2349 243.8833 12.62270669129883 GLOBALSTAR M072 1 31574U 07020D 10067.79790950 -.00000886 +00000-0 -43684-2 0 08618 2 31574 052.0122 340.7869 0001555 093.7434 266.3577 12.62255014128372 GLOBALSTAR M071 1 31576U 07020F 10067.89205755 -.00000086 +00000-0 +10000-3 0 04585 2 31576 052.0052 250.1522 0002628 115.8621 244.2488 12.62264676129878 GLOBALSTAR M067 1 32263U 07048A 10066.15258683 -.00000104 00000-0 00000+0 0 8091 2 32263 051.9743 118.6971 0001312 178.0364 182.0517 12.62261199111349 GLOBALSTAR M070 1 32264U 07048B 10065.40514082 -.00000086 00000-0 10000-3 0 7595 2 32264 051.9747 211.4448 0002490 134.4308 225.6760 12.62267595109737 GLOBALSTAR M066 1 32265U 07048C 10065.40784030 -.00000104 00000-0 00000+0 0 8168 2 32265 051.9671 075.9418 0000197 307.1177 052.9669 12.62266982111965 GLOBALSTAR M068 1 32266U 07048D 10066.08824180 -.00000086 00000-0 10000-3 0 8215 2 32266 051.9845 029.9275 0000333 093.6784 266.4102 12.62267361112813